Location: London
(51.5074°N, 0.1278°W)
Time: 03:56:18
(UTC+01:00)

OTV 5 (USA 277) - Visible Passes

Search period start: 21 April 2019 00:00
Search period end: 01 May 2019 00:00
Orbit: 310 x 326 km, 54.5° (Epoch: 20 April)

Date Brightness Start Highest point End Pass type
(mag) Time Alt. Az. Time Alt. Az. Time Alt. Az.
21 Apr ? 03:32:26 43° E 03:32:26 43° E 03:34:23 10° ESE visible
21 Apr ? 05:03:45 10° W 05:05:46 19° SW 05:07:47 10° S visible
22 Apr ? 03:47:42 25° SE 03:47:42 25° SE 03:49:03 10° SE visible
23 Apr ? 21:55:54 10° SSW 21:56:27 14° SSW 21:56:27 14° SSW visible
24 Apr ? 22:10:18 10° SW 22:12:48 59° S 22:12:48 59° S visible
25 Apr ? 20:51:26 10° SSW 20:53:38 22° SE 20:55:49 10° E visible
25 Apr ? 22:25:01 10° WSW 22:27:44 74° NNW 22:28:18 50° NE visible
26 Apr ? 21:05:35 10° SW 21:08:13 43° SSE 21:10:50 10° ENE visible
26 Apr ? 22:39:52 10° W 22:42:33 49° NNW 22:43:12 38° NE visible
27 Apr ? 21:20:10 10° WSW 21:22:54 85° SSE 21:25:38 10° ENE visible
27 Apr ? 22:54:47 10° WNW 22:57:24 41° N 22:57:45 39° NNE visible
28 Apr ? 21:34:58 10° W 21:37:41 59° NNW 21:40:23 10° ENE visible
28 Apr ? 23:09:39 10° WNW 23:12:05 41° N 23:12:05 41° N visible
29 Apr ? 21:49:52 10° W 21:52:31 44° N 21:55:09 10° ENE visible
29 Apr ? 23:24:26 10° WNW 23:26:17 34° NW 23:26:17 34° NW visible
30 Apr ? 22:04:45 10° WNW 22:07:23 40° N 22:09:32 14° ENE visible
30 Apr ? 23:39:11 10° WNW 23:40:25 23° WNW 23:40:25 23° WNW visible
